Location: Barnston
(51.8500°N, 0.4000°E)
Time: 13:55:31
(UTC+00:00)

Meteor 1-25 Rocket - Pass Details

Date: 26 September 2023
Orbit: 836 x 891 km, 81.2° (Epoch: 10 December)

Event Time Altitude Azimuth Distance (km) Brightness Sun altitude
Rises 03:11:28 0° 345° (NNW) 3,440 7.6 -24.1°
Reaches altitude 10° 03:13:54 10° 343° (NNW) 2,507 6.8 -23.8°
Maximum altitude 03:19:32 67° 262° (W) 945 4.1 -23.1°
Enters shadow 03:21:40 39° 194° (SSW) 1,293 4.8 -22.8°
